Location: Regensburg
(49.0167°N, 12.1000°E)
Time: 17:53:43
(UTC+02:00)

X-37B - Visible Passes

Search period start: 25 May 2020 00:00
Search period end: 04 June 2020 00:00
Orbit: 389 x 390 km, 44.9° (Epoch: 18 May)

Date Brightness Start Highest point End Pass type
(mag) Time Alt. Az. Time Alt. Az. Time Alt. Az.
01 Jun ? 04:25:13 10° SSW 04:27:42 21° SSE 04:30:12 10° ESE visible
02 Jun ? 03:29:18 14° SSE 03:30:01 15° SSE 03:31:56 10° ESE visible
03 Jun ? 04:05:58 12° SW 04:08:22 28° SSE 04:11:10 10° ESE visible
